SWA1507 KDAL-KMAF

Flight info

Callsign SWA1507
Flight time 0h 56m
Altitude 36000
Route KKITY5 DOSXX
Aircraft B738/M-SADE2E3GIJ4RWZ/LB1D1

Departure

Time 2026-04-14 03:00
Airport Dallas Love Field (KDAL)

Arrival

Time 2026-04-14 03:56
Airport Midland International Air and Space Port (KMAF)
Time Latitude Longitude Altitude Speed Heading
2026-04-14 02:30 32.84561 -96.84781 480 ft 0 kts 359°
2026-04-14 02:46 32.84553 -96.84781 490 ft 3 kts 359°
2026-04-14 02:46 32.84533 -96.84781 485 ft 3 kts
2026-04-14 02:46 32.84515 -96.84786 483 ft 3 kts 38°
2026-04-14 02:46 32.84508 -96.84796 482 ft 1 kts 90°
2026-04-14 02:47 32.84508 -96.84803 481 ft 0 kts 91°
2026-04-14 02:53 32.84507 -96.84799 483 ft 2 kts 92°
2026-04-14 02:53 32.84508 -96.84754 490 ft 9 kts 90°
2026-04-14 02:53 32.84507 -96.84653 485 ft 15 kts 91°
2026-04-14 02:54 32.84578 -96.84563 488 ft 19 kts
2026-04-14 02:54 32.84699 -96.84671 488 ft 25 kts 315°
2026-04-14 02:54 32.84833 -96.84833 481 ft 30 kts 314°
2026-04-14 02:54 32.84988 -96.85011 491 ft 32 kts 318°
2026-04-14 02:55 32.85158 -96.85206 486 ft 35 kts 315°
2026-04-14 02:55 32.85335 -96.85415 479 ft 36 kts 315°
2026-04-14 02:55 32.85518 -96.85624 481 ft 37 kts 316°
2026-04-14 02:55 32.85645 -96.85741 478 ft 0 kts 359°
2026-04-14 02:59 32.85648 -96.85740 479 ft 2 kts 11°
2026-04-14 02:59 32.85686 -96.85714 478 ft 11 kts 44°
2026-04-14 02:59 32.85675 -96.85606 481 ft 18 kts 133°
2026-04-14 02:59 32.85616 -96.85543 483 ft 0 kts 134°
2026-04-14 03:00 32.85535 -96.85448 481 ft 56 kts 136°
2026-04-14 03:00 32.85036 -96.84875 490 ft 141 kts 137°
2026-04-14 03:00 32.84170 -96.83882 738 ft 190 kts 137°
2026-04-14 03:00 32.83227 -96.82780 1559 ft 197 kts 140°
2026-04-14 03:01 32.82283 -96.81622 2598 ft 196 kts 142°
2026-04-14 03:01 32.81306 -96.80426 3156 ft 211 kts 142°
2026-04-14 03:01 32.80222 -96.79096 3511 ft 231 kts 144°
2026-04-14 03:01 32.78936 -96.77931 4208 ft 237 kts 149°
2026-04-14 03:02 32.77623 -96.76696 5046 ft 245 kts 146°
2026-04-14 03:02 32.76314 -96.75379 5961 ft 249 kts 144°
2026-04-14 03:02 32.74991 -96.73982 6752 ft 259 kts 141°
2026-04-14 03:02 32.73690 -96.72493 7644 ft 261 kts 140°
2026-04-14 03:03 32.72332 -96.71037 8461 ft 264 kts 152°
2026-04-14 03:03 32.70621 -96.70398 9282 ft 259 kts 183°
2026-04-14 03:03 32.68869 -96.70812 10097 ft 259 kts 204°
2026-04-14 03:03 32.67216 -96.71685 10924 ft 260 kts 208°
2026-04-14 03:04 32.65567 -96.72629 11621 ft 270 kts 208°
2026-04-14 03:04 32.63798 -96.73665 11856 ft 297 kts 212°
2026-04-14 03:04 32.62226 -96.75364 12030 ft 320 kts 238°
2026-04-14 03:04 32.61442 -96.77903 12285 ft 341 kts 263°
2026-04-14 03:05 32.61373 -96.80753 12900 ft 349 kts 269°
2026-04-14 03:05 32.61402 -96.83640 13690 ft 352 kts 270°
2026-04-14 03:05 32.61446 -96.86520 14394 ft 356 kts 270°
2026-04-14 03:05 32.61488 -96.89462 15127 ft 358 kts 269°
2026-04-14 03:06 32.61520 -96.92454 15898 ft 359 kts 269°
2026-04-14 03:06 32.61543 -96.95389 16614 ft 361 kts 269°
2026-04-14 03:06 32.61560 -96.98418 17349 ft 364 kts 269°
2026-04-14 03:06 32.61572 -97.01388 18030 ft 367 kts 268°
2026-04-14 03:07 32.61583 -97.04425 18665 ft 370 kts 268°
2026-04-14 03:07 32.61591 -97.07490 19240 ft 373 kts 268°
2026-04-14 03:07 32.61599 -97.10580 19804 ft 376 kts 268°
2026-04-14 03:07 32.61606 -97.13702 20333 ft 381 kts 268°
2026-04-14 03:08 32.61610 -97.15810 20394 ft 392 kts 268°
2026-04-14 03:08 32.61617 -97.20231 20596 ft 408 kts 268°
2026-04-14 03:08 32.61624 -97.23621 20944 ft 413 kts 268°
2026-04-14 03:08 32.61630 -97.27048 21231 ft 419 kts 268°
2026-04-14 03:09 32.61633 -97.29347 21447 ft 422 kts 268°
2026-04-14 03:09 32.61634 -97.32832 21913 ft 423 kts 268°
2026-04-14 03:09 32.61519 -97.36314 22364 ft 423 kts 264°
2026-04-14 03:09 32.61276 -97.39802 22733 ft 425 kts 263°
2026-04-14 03:10 32.60982 -97.43302 23076 ft 428 kts 262°
2026-04-14 03:10 32.60676 -97.46827 23424 ft 430 kts 262°
2026-04-14 03:10 32.60373 -97.50371 23689 ft 433 kts 263°
2026-04-14 03:10 32.60079 -97.53927 23994 ft 434 kts 263°
2026-04-14 03:11 32.59793 -97.57496 24293 ft 436 kts 263°
2026-04-14 03:11 32.59512 -97.61083 24621 ft 437 kts 263°
2026-04-14 03:11 32.59235 -97.64666 24969 ft 437 kts 263°
2026-04-14 03:11 32.58958 -97.68259 25243 ft 439 kts 263°
2026-04-14 03:12 32.58679 -97.71869 25503 ft 441 kts 263°
2026-04-14 03:12 32.58397 -97.75502 25763 ft 443 kts 263°
2026-04-14 03:12 32.58114 -97.79142 26032 ft 444 kts 263°
2026-04-14 03:12 32.57829 -97.82791 26303 ft 446 kts 263°
2026-04-14 03:13 32.57542 -97.86450 26633 ft 445 kts 263°
2026-04-14 03:13 32.57255 -97.90100 27042 ft 443 kts 263°
2026-04-14 03:13 32.56968 -97.93731 27470 ft 441 kts 263°
2026-04-14 03:13 32.56681 -97.97350 27880 ft 440 kts 263°
2026-04-14 03:14 32.56400 -98.00887 28472 ft 434 kts 262°
2026-04-14 03:14 32.56114 -98.04471 29058 ft 429 kts 262°
2026-04-14 03:14 32.55832 -98.07989 29456 ft 429 kts 262°
2026-04-14 03:14 32.55547 -98.11512 29803 ft 430 kts 262°
2026-04-14 03:15 32.55262 -98.15043 30210 ft 429 kts 262°
2026-04-14 03:15 32.54981 -98.18507 30654 ft 426 kts 262°
2026-04-14 03:15 32.54697 -98.21992 31131 ft 422 kts 262°
2026-04-14 03:15 32.54416 -98.25440 31564 ft 420 kts 262°
2026-04-14 03:16 32.54134 -98.28884 31952 ft 419 kts 262°
2026-04-14 03:16 32.53852 -98.32318 32329 ft 417 kts 262°
2026-04-14 03:16 32.53570 -98.35733 32696 ft 414 kts 261°
2026-04-14 03:16 32.53297 -98.39098 33237 ft 407 kts 261°
2026-04-14 03:17 32.53022 -98.42422 33668 ft 404 kts 261°
2026-04-14 03:17 32.52466 -98.49037 34211 ft 404 kts 261°
2026-04-14 03:17 32.52187 -98.52343 34443 ft 403 kts 261°
2026-04-14 03:18 32.51909 -98.55643 34728 ft 402 kts 261°
2026-04-14 03:18 32.51630 -98.58937 35045 ft 400 kts 261°
2026-04-14 03:18 32.51354 -98.62208 35337 ft 399 kts 261°
2026-04-14 03:18 32.51075 -98.65484 35502 ft 401 kts 261°
2026-04-14 03:19 32.50505 -98.72135 35578 ft 410 kts 261°
2026-04-14 03:19 32.49923 -98.78897 35655 ft 415 kts 261°
2026-04-14 03:20 32.49335 -98.85712 35856 ft 415 kts 261°
2026-04-14 03:20 32.49042 -98.89104 36023 ft 414 kts 261°
2026-04-14 03:20 32.48746 -98.92499 36036 ft 415 kts 261°
2026-04-14 03:21 32.48152 -98.99296 36032 ft 414 kts 261°
2026-04-14 03:21 32.47556 -99.06069 36024 ft 413 kts 261°
2026-04-14 03:22 32.46956 -99.12843 36017 ft 414 kts 260°
2026-04-14 03:22 32.46350 -99.19626 36004 ft 414 kts 260°
2026-04-14 03:23 32.45741 -99.26419 35993 ft 415 kts 260°
2026-04-14 03:23 32.45128 -99.33213 35995 ft 415 kts 260°
2026-04-14 03:24 32.44511 -99.40009 36019 ft 415 kts 260°
2026-04-14 03:24 32.43890 -99.46811 36047 ft 415 kts 260°
2026-04-14 03:25 32.43272 -99.53547 36050 ft 414 kts 260°
2026-04-14 03:25 32.42647 -99.60313 36060 ft 413 kts 260°
2026-04-14 03:26 32.42018 -99.67072 36055 ft 413 kts 260°
2026-04-14 03:26 32.41386 -99.73834 36055 ft 413 kts 260°
2026-04-14 03:27 32.40752 -99.80596 36022 ft 413 kts 260°
2026-04-14 03:27 32.40115 -99.87350 36027 ft 413 kts 260°
2026-04-14 03:28 32.39471 -99.94108 36017 ft 413 kts 259°
2026-04-14 03:28 32.38500 -100.00796 36009 ft 412 kts 256°
2026-04-14 03:29 32.37384 -100.07442 35990 ft 412 kts 256°
2026-04-14 03:29 32.36271 -100.14088 35980 ft 412 kts 256°
2026-04-14 03:30 32.35216 -100.20749 35983 ft 413 kts 257°
2026-04-14 03:30 32.34354 -100.27447 35947 ft 411 kts 258°
2026-04-14 03:31 32.33517 -100.34140 35946 ft 411 kts 258°
2026-04-14 03:31 32.32656 -100.40829 35941 ft 411 kts 258°
2026-04-14 03:32 32.31780 -100.47512 35932 ft 412 kts 258°
2026-04-14 03:32 32.30900 -100.54155 35936 ft 412 kts 258°
2026-04-14 03:33 32.30012 -100.60833 35941 ft 410 kts 258°
2026-04-14 03:33 32.29134 -100.67429 35787 ft 397 kts 257°
2026-04-14 03:34 32.28278 -100.73819 34506 ft 396 kts 258°
2026-04-14 03:34 32.27841 -100.77057 33638 ft 401 kts 258°
2026-04-14 03:34 32.27396 -100.80337 32672 ft 407 kts 258°
2026-04-14 03:35 32.26946 -100.83658 31707 ft 412 kts 258°
2026-04-14 03:35 32.26490 -100.87024 30720 ft 418 kts 258°
2026-04-14 03:35 32.26026 -100.90437 29694 ft 423 kts 258°
2026-04-14 03:35 32.25557 -100.93888 28550 ft 427 kts 258°
2026-04-14 03:36 32.25083 -100.97368 27416 ft 431 kts 258°
2026-04-14 03:36 32.24604 -101.00882 26248 ft 435 kts 258°
2026-04-14 03:36 32.24119 -101.04426 25148 ft 438 kts 258°
2026-04-14 03:36 32.23636 -101.07963 24376 ft 433 kts 259°
2026-04-14 03:37 32.23159 -101.11449 23709 ft 427 kts 259°
2026-04-14 03:37 32.22687 -101.14888 22886 ft 422 kts 259°
2026-04-14 03:37 32.22219 -101.18290 22048 ft 418 kts 259°
2026-04-14 03:37 32.21754 -101.21656 21255 ft 413 kts 259°
2026-04-14 03:38 32.21293 -101.24988 20483 ft 409 kts 259°
2026-04-14 03:38 32.20835 -101.28286 19782 ft 405 kts 259°
2026-04-14 03:38 32.20381 -101.31554 19044 ft 402 kts 258°
2026-04-14 03:38 32.19928 -101.34805 18257 ft 400 kts 259°
2026-04-14 03:39 32.19477 -101.38034 17454 ft 397 kts 259°
2026-04-14 03:39 32.19032 -101.41223 16749 ft 391 kts 259°
2026-04-14 03:39 32.18592 -101.44372 16045 ft 386 kts 258°
2026-04-14 03:39 32.18155 -101.47484 15338 ft 382 kts 258°
2026-04-14 03:40 32.17722 -101.50567 14628 ft 379 kts 258°
2026-04-14 03:40 32.17291 -101.53628 13948 ft 376 kts 258°
2026-04-14 03:40 32.16869 -101.56614 13229 ft 372 kts 258°
2026-04-14 03:40 32.16444 -101.59623 12439 ft 371 kts 258°
2026-04-14 03:41 32.16020 -101.62619 11674 ft 370 kts 259°
2026-04-14 03:41 32.15590 -101.65646 11348 ft 366 kts 259°
2026-04-14 03:41 32.15186 -101.68501 11206 ft 349 kts 259°
2026-04-14 03:41 32.14796 -101.71254 11057 ft 333 kts 259°
2026-04-14 03:42 32.14421 -101.73888 10967 ft 318 kts 259°
2026-04-14 03:42 32.14065 -101.76392 10934 ft 302 kts 259°
2026-04-14 03:42 32.13725 -101.78773 10917 ft 287 kts 259°
2026-04-14 03:42 32.13401 -101.81041 10905 ft 273 kts 259°
2026-04-14 03:43 32.13093 -101.83197 10914 ft 260 kts 259°
2026-04-14 03:43 32.12800 -101.85247 10922 ft 247 kts 259°
2026-04-14 03:43 32.12521 -101.87193 10930 ft 235 kts 259°
2026-04-14 03:43 32.12254 -101.89049 10889 ft 226 kts 258°
2026-04-14 03:44 32.11992 -101.90871 10653 ft 226 kts 259°
2026-04-14 03:44 32.11727 -101.92705 10368 ft 228 kts 259°
2026-04-14 03:44 32.11460 -101.94553 10135 ft 228 kts 259°
2026-04-14 03:44 32.11195 -101.96387 9923 ft 225 kts 259°
2026-04-14 03:45 32.10931 -101.98209 9552 ft 226 kts 259°
2026-04-14 03:45 32.10667 -102.00039 9173 ft 226 kts 259°
2026-04-14 03:45 32.10402 -102.01866 8830 ft 226 kts 259°
2026-04-14 03:45 32.10137 -102.03691 8479 ft 225 kts 259°
2026-04-14 03:46 32.09873 -102.05506 8155 ft 224 kts 258°
2026-04-14 03:46 32.09611 -102.07314 7829 ft 223 kts 258°
2026-04-14 03:46 32.09347 -102.09129 7440 ft 225 kts 257°
2026-04-14 03:46 32.09083 -102.10945 7137 ft 224 kts 257°
2026-04-14 03:47 32.08825 -102.12718 6854 ft 222 kts 257°
2026-04-14 03:47 32.08564 -102.14508 6540 ft 222 kts 257°
2026-04-14 03:47 32.08301 -102.16310 6198 ft 223 kts 256°
2026-04-14 03:47 32.08040 -102.18103 5937 ft 219 kts 256°
2026-04-14 03:48 32.07783 -102.19863 5564 ft 218 kts 255°
2026-04-14 03:48 32.07525 -102.21629 5143 ft 222 kts 253°
2026-04-14 03:48 32.07263 -102.23415 4920 ft 219 kts 254°
2026-04-14 03:48 32.07007 -102.25172 4815 ft 214 kts 253°
2026-04-14 03:49 32.06765 -102.26839 4797 ft 202 kts 253°
2026-04-14 03:49 32.06523 -102.28476 4786 ft 201 kts 253°
2026-04-14 03:49 32.06289 -102.30069 4764 ft 193 kts 253°
2026-04-14 03:49 32.06065 -102.31596 4791 ft 184 kts 252°
2026-04-14 03:50 32.05856 -102.33031 4781 ft 171 kts 251°
2026-04-14 03:50 32.05660 -102.34371 4780 ft 161 kts 251°
2026-04-14 03:50 32.05471 -102.35649 4778 ft 156 kts 251°
2026-04-14 03:50 32.05166 -102.36780 4790 ft 133 kts 228°
2026-04-14 03:51 32.04578 -102.37569 4798 ft 127 kts 215°
2026-04-14 03:51 32.03813 -102.38079 4812 ft 127 kts 197°
2026-04-14 03:51 32.02945 -102.38220 4822 ft 131 kts 179°
2026-04-14 03:51 32.02051 -102.37938 4812 ft 136 kts 158°
2026-04-14 03:52 32.01275 -102.37272 4811 ft 142 kts 141°
2026-04-14 03:52 32.00697 -102.36315 4818 ft 145 kts 129°
2026-04-14 03:52 32.00180 -102.35284 4812 ft 146 kts 128°
2026-04-14 03:52 31.99668 -102.34249 4818 ft 146 kts 128°
2026-04-14 03:53 31.99159 -102.33214 4811 ft 146 kts 128°
2026-04-14 03:53 31.98689 -102.32150 4747 ft 148 kts 123°
2026-04-14 03:53 31.98260 -102.31047 4575 ft 148 kts 122°
2026-04-14 03:53 31.97848 -102.29944 4369 ft 145 kts 121°
2026-04-14 03:54 31.97447 -102.28864 4179 ft 143 kts 121°
2026-04-14 03:54 31.97047 -102.27788 4004 ft 144 kts 121°
2026-04-14 03:54 31.96778 -102.27066 3884 ft 146 kts 120°
2026-04-14 03:54 31.96234 -102.25598 3641 ft 145 kts 120°
2026-04-14 03:55 31.95969 -102.24882 3516 ft 143 kts 120°
2026-04-14 03:55 31.95571 -102.23816 3350 ft 143 kts 118°
2026-04-14 03:55 31.95169 -102.22726 3139 ft 146 kts 118°
2026-04-14 03:55 31.94772 -102.21638 2907 ft 144 kts 118°
2026-04-14 03:56 31.94412 -102.20682 2863 ft 91 kts 115°
2026-04-14 03:56 31.94177 -102.20051 2871 ft 78 kts 115°
2026-04-14 03:56 31.93967 -102.19505 2865 ft 69 kts 116°
2026-04-14 03:56 31.93852 -102.19300 2866 ft 13 kts 212°
2026-04-14 03:57 31.93793 -102.19394 2866 ft 16 kts 238°
2026-04-14 03:57 31.93825 -102.19489 2866 ft 13 kts 316°
2026-04-14 03:57 31.93825 -102.19600 2866 ft 15 kts 268°
2026-04-14 03:57 31.93819 -102.19738 2866 ft 19 kts 266°
2026-04-14 03:58 31.93824 -102.19920 2865 ft 27 kts 271°
2026-04-14 03:58 31.93827 -102.20181 2866 ft 36 kts 271°
2026-04-14 03:58 31.93820 -102.20486 2866 ft 38 kts 261°
2026-04-14 03:58 31.93793 -102.20676 2866 ft 13 kts 291°
2026-04-14 03:59 31.93802 -102.20695 2866 ft 0 kts 299°